Find Kosmos-1651

NORAD ID: 15698 Int'l Des: 1985-037 Owner: GUKOS Country: SU Constellation: GLONASS operational
MEOCIRCULAR

現在のビュー

3D地球を読み込み中...

About Kosmos-1651

Kosmos-1651 (NORAD 15698) is a GLONASS constellation satellite launched May 17, 1985 by GUKOS of SU. It operates in MEO, CIRCULAR orbit with a mass of 1300.00 kg.

Kosmos-1651について

説明を読み込み中...

次回通過

Passes for default location (London). Set your location on the main map for personalized predictions.

高度履歴

Loading altitude history...

軌道要素

1 15698U 85037B 26192.50146920 -.00000020 00000-0 00000+0 0 9991
2 15698 64.8936 72.0058 0015150 25.7922 170.9192 2.13123355320300
Epoch: Jul 11, 2026 • Age: 65 hours

現在のステータス

高度 19136.6 km
遠地点 / 近地点 N/A
速度 3.95 km/s
衛星直下点 53.99°N, 156.65°W
打ち上げ日 May 17, 1985
運用期間 41.1 years
タイプ other

技術仕様

分類 Payload
質量 1300.00 kg
乾燥質量 1200.00 kg
総質量 1300.00 kg
長さ 4.00 m
直径 1.50 m
スパン 7.80 m
形状 Cyl + Ant + 2 Pan
製造者 OAZ
バスタイプ Uragan
フェーズステータス In Orbit
所有者/国 GUKOS/SU

Most Searched